sat.trackr.live / text

‹ back to catalog

STARLINK-31451

NORAD 59366 · 2024-060U

PAYLOAD ACTIVE UNKNOWN

§ Identity

Operator
Country
US
Launch date
2024-03-31
Launch site
AFETR
Launch vehicle
Mass (kg)
RCS (m²)

Purposes: comms

External: N2YO · Heavens-Above · Gunter

§ Orbital elements

Epoch: 2026-05-24T20:16:19.416288Z

Period
94.27 min
Inclination
43.0026°
Eccentricity
0.0001330
Mean motion
15.27579683 rev/d
Perigee alt
482.1 km
Apogee alt
484.0 km
Semi-major
6,861.2 km
B*
5.2263e-5
RAAN
189.4418°
Arg perigee
272.7066°
Mean anomaly
87.3633°
Rev number
12,171

§ Raw data

STARLINK-314511 59366U 24060U   26144.84466917  .00001176  00000+0  52263-4 0  99992 59366  43.0026 189.4418 0001330 272.7066  87.3633 15.27579683121713

JSON: /api/v1/satellites/59366 · /tle

For live sub-satellite position, see the globe view (requires WebGL).

§ Visibility from observer

Set your observer location to see the next 7 days of passes ≥ 10°. The values pass through the URL so the page stays shareable.

No JS? Fill the form by hand. The geolocation button needs JavaScript.